Location: Cruquius
(52.3348°N, 4.6319°E)
Time: 21:20:54
(UTC+00:00)

Cosmos 1602 - Visible Passes

Search period start: 19 September 2021 00:00
Search period end: 29 September 2021 00:00
Orbit: 513 x 531 km, 82.5° (Epoch: 19 September)

Date Brightness Start Highest point End Pass type
(mag) Time Alt. Az. Time Alt. Az. Time Alt. Az.
19 Sep 6.3 01:55:54 10° NNE 01:58:50 20° ENE 02:01:42 10° ESE visible
19 Sep 4.0 03:31:10 10° NNW 03:34:58 47° W 03:36:45 27° SSW visible
20 Sep 6.4 01:43:07 10° NNE 01:45:52 18° ENE 01:47:34 14° E visible
20 Sep 3.8 03:18:13 10° NNW 03:22:04 53° W 03:22:39 48° SW visible
21 Sep 6.4 01:30:21 10° NNE 01:32:54 16° ENE 01:33:43 15° ENE visible
21 Sep 3.8 03:05:16 10° NNW 03:08:48 57° WNW 03:08:48 57° WNW visible
22 Sep 6.6 01:17:37 10° NNE 01:19:54 15° ENE 01:20:02 15° ENE visible
22 Sep 4.4 02:52:19 10° NNW 02:55:08 43° NNW 02:55:08 43° NNW visible
23 Sep 6.8 01:04:56 10° NNE 01:06:28 13° NE 01:06:28 13° NE visible
23 Sep 5.1 02:39:23 10° NNW 02:41:34 31° NNW 02:41:34 31° NNW visible
24 Sep 7.0 00:52:18 10° NE 00:53:01 11° NE 00:53:01 11° NE visible
24 Sep 5.6 02:26:28 10° N 02:28:07 24° NNW 02:28:07 24° NNW visible
25 Sep 6.0 02:13:32 10° N 02:14:45 19° N 02:14:45 19° N visible
26 Sep 6.4 02:00:37 10° N 02:01:25 16° N 02:01:25 16° N visible
27 Sep 6.6 01:47:42 10° N 01:48:09 13° N 01:48:09 13° N visible
28 Sep 6.9 01:34:48 10° N 01:34:56 11° N 01:34:56 11° N visible
